Location: Zengebe
(1.4833°N, 32.5167°E)
Time: 23:07:09
(UTC+00:00)

USA 229 DEB - Pass Details

Date: 07 June 2020
Orbit: 983 x 1229 km, 63.4° (Epoch: 24 June)

Event Time Altitude Azimuth Distance (km) Brightness Sun altitude
Rises 01:22:00 0° 337° (NNW) 4,101 6.8 -32.7°
Reaches altitude 10° 01:24:43 10° 338° (NNW) 3,155 6.2 -32.1°
Maximum altitude 01:32:24 88° 68° (ENE) 1,231 3.8 -30.5°
Drops below altitude 10° 01:40:06 10° 157° (SSE) 3,166 6.1 -28.7°
Sets 01:42:50 0° 157° (SSE) 4,115 6.7 -28.1°
